Weather History for KBCK - November, 2013

Change the Weather History Date:

Saturday, November 9, 2013

  Actual Average (KLSE) Record (KLSE)
Temperature  
Mean Temperature 42 °F 40 °F  
Max Temperature 47 °F 48 °F 75 °F (1999)
Min Temperature 38 °F 32 °F 13 °F (1921)
Degree Days  
Heating Degree Days 22 25  
Month to date heating degree days 209  
Since 1 July heating degree days 837  
Cooling Degree Days 0 0  
Month to date cooling degree days 0  
Year to date cooling degree days 782  
Moisture  
Dew Point 32 °F    
Average Humidity 64    
Maximum Humidity 80    
Minimum Humidity 51    
Precipitation  
Precipitation 0.00 in 0.07 in 1.77 in (1919)
Month to date precipitation 0.60  
Year to date precipitation 30.29  
Snow  
Snow 0.00 in 0.10 in 0.80 in (1995)
Month to date snowfall 0.5  
Since 1 July snowfall 0.7  
Snow Depth -    
Sea Level Pressure  
Sea Level Pressure 29.85 in    
Wind  
Wind Speed 10 mph (West)    
Max Wind Speed 22 mph    
Max Gust Speed 37 mph    
Visibility 10 miles    
Events Rain    
T = Trace of Precipitation, MM = Missing Value Source: NWS Daily Summary

Daily Weather History Graph

Daily Weather History Graph

Search for Another Location

Airport or City:

Trip Planner

Search our weather history database for the weather conditions in past years. The results will help you decide how hot, cold, wet, or windy it might be!

Date:

Astronomy

Nov. 09, 2013 Rise Set
Actual Time 6:51 AM CST 4:42 PM CST
Civil Twilight 6:20 AM CST 5:13 PM CST
Nautical Twilight 5:45 AM CST 5:48 PM CST
Astronomical Twilight 5:11 AM CST 6:22 PM CST
Moon 12:26 PM CST (11/9) 11:16 PM CST (11/9)
Length of Visible Light 10h 52m
Length of Day
9h 51m
Waxing Crescent, 44% of the Moon is Illuminated
Nov 9
Waxing Crescent
Nov 9
First Quarter
Nov 17
Full
Nov 25
Last Quarter
Dec 2
New

Hourly Weather History & Observations

Time (CST) Temp. Windchill Dew Point Humidity Pressure Visibility Wind Dir Wind Speed Gust Speed Precip Events Conditions
12:15 AM 42.8 °F 40.1 °F 36.9 °F 80% 29.67 in 10.0 mi SSW 4.6 mph - N/A   Overcast
12:35 AM 43.3 °F 39.9 °F 37.2 °F 79% 29.67 in 10.0 mi SSW 5.8 mph - N/A   Overcast
12:55 AM 44.8 °F 40.4 °F 36.5 °F 73% 29.67 in 10.0 mi SSW 8.1 mph - N/A   Overcast
1:15 AM 45.5 °F 42.5 °F 36.5 °F 71% 29.66 in 10.0 mi SW 5.8 mph - N/A   Overcast
1:35 AM 45.9 °F 42.3 °F 36.5 °F 70% 29.65 in 10.0 mi SW 6.9 mph - N/A   Overcast
1:55 AM 46.0 °F 43.1 °F 36.5 °F 69% 29.66 in 10.0 mi SSW 5.8 mph - N/A   Overcast
2:15 AM 45.9 °F 42.3 °F 36.5 °F 70% 29.66 in 10.0 mi SSW 6.9 mph - N/A   Overcast
2:35 AM 45.9 °F 42.3 °F 36.5 °F 70% 29.66 in 10.0 mi SW 6.9 mph - N/A   Overcast
2:55 AM 45.9 °F 42.9 °F 36.9 °F 71% 29.65 in 10.0 mi SW 5.8 mph - N/A   Overcast
3:15 AM 45.5 °F 42.5 °F 36.9 °F 72% 29.66 in 10.0 mi SW 5.8 mph - N/A   Overcast
3:35 AM 45.5 °F 43.2 °F 37.4 °F 73% 29.66 in 10.0 mi SW 4.6 mph - N/A   Overcast
3:55 AM 45.7 °F 42.0 °F 37.6 °F 73% 29.66 in 10.0 mi SW 6.9 mph - N/A   Overcast
4:15 AM 46.0 °F 42.5 °F 38.5 °F 75% 29.66 in 10.0 mi SW 6.9 mph - N/A   Overcast
4:35 AM 46.2 °F 41.7 °F 39.0 °F 76% 29.67 in 10.0 mi WSW 9.2 mph - N/A   Overcast
4:55 AM 47.3 °F - 39.6 °F 74% 29.68 in 10.0 mi West 10.4 mph 18.4 mph N/A   Overcast
5:15 AM 47.3 °F - 39.2 °F 73% 29.68 in 10.0 mi WSW 9.2 mph 19.6 mph N/A   Overcast
5:35 AM 46.9 °F - 38.3 °F 72% 29.69 in 10.0 mi West 13.8 mph 21.9 mph N/A   Overcast
5:55 AM 46.0 °F 39.3 °F 37.0 °F 71% 29.70 in 10.0 mi West 16.1 mph 26.5 mph N/A   Overcast
6:15 AM 45.0 °F 38.5 °F 36.1 °F 71% 29.72 in 10.0 mi West 13.8 mph 26.5 mph N/A   Overcast
6:35 AM 44.2 °F 38.0 °F 35.8 °F 72% 29.73 in 10.0 mi West 12.7 mph - N/A   Overcast
6:55 AM 44.6 °F 38.8 °F 35.6 °F 71% 29.74 in 10.0 mi West 11.5 mph 20.7 mph N/A   Overcast
7:15 AM 44.8 °F 40.4 °F 35.6 °F 70% 29.75 in 10.0 mi West 8.1 mph 18.4 mph N/A   Overcast
7:35 AM 44.6 °F 38.8 °F 35.4 °F 70% 29.76 in 10.0 mi WSW 11.5 mph - N/A   Overcast
7:55 AM 44.8 °F 39.0 °F 35.4 °F 70% 29.76 in 10.0 mi WSW 11.5 mph 17.3 mph N/A   Overcast
8:15 AM 45.0 °F 41.2 °F 35.6 °F 70% 29.77 in 10.0 mi WSW 6.9 mph 16.1 mph N/A   Overcast
8:35 AM 45.3 °F 41.1 °F 35.8 °F 69% 29.77 in 10.0 mi West 8.1 mph - N/A   Overcast
8:55 AM 45.5 °F 39.9 °F 36.5 °F 71% 29.78 in 10.0 mi West 11.5 mph 16.1 mph N/A   Light Drizzle
9:15 AM 45.5 °F 41.3 °F 36.5 °F 71% 29.79 in 10.0 mi West 8.1 mph - N/A   Overcast
9:35 AM 45.7 °F 40.2 °F 36.0 °F 69% 29.79 in 10.0 mi West 11.5 mph 21.9 mph N/A   Overcast
9:55 AM 45.9 °F 40.4 °F 36.0 °F 68% 29.79 in 10.0 mi West 11.5 mph 19.6 mph N/A   Overcast
10:15 AM 46.0 °F 39.3 °F 36.3 °F 69% 29.80 in 10.0 mi West 16.1 mph 24.2 mph N/A   Overcast
10:35 AM 46.6 °F - 36.0 °F 67% 29.80 in 10.0 mi West 13.8 mph 25.3 mph N/A   Overcast
10:55 AM 46.6 °F - 36.3 °F 67% 29.81 in 10.0 mi West 11.5 mph 19.6 mph N/A   Overcast
11:15 AM 46.4 °F 40.7 °F 36.5 °F 68% 29.81 in 10.0 mi West 12.7 mph 25.3 mph N/A   Overcast
11:35 AM 46.4 °F 39.8 °F 35.1 °F 65% 29.83 in 10.0 mi West 16.1 mph 29.9 mph N/A   Overcast
11:55 AM 45.7 °F 39.5 °F 33.8 °F 63% 29.84 in 10.0 mi WNW 13.8 mph 27.6 mph N/A   Overcast
12:15 PM 45.7 °F 38.0 °F 33.4 °F 62% 29.84 in 10.0 mi West 19.6 mph 32.2 mph N/A   Overcast
12:35 PM 46.8 °F - 33.8 °F 61% 29.85 in 10.0 mi West 19.6 mph 26.5 mph N/A   Overcast
12:55 PM 46.6 °F - 33.3 °F 60% 29.85 in 10.0 mi WNW 15.0 mph 29.9 mph N/A   Overcast
1:15 PM 46.4 °F 39.8 °F 34.0 °F 62% 29.86 in 10.0 mi West 16.1 mph 21.9 mph N/A   Overcast
1:35 PM 46.4 °F 38.7 °F 33.1 °F 60% 29.87 in 10.0 mi West 20.7 mph 28.8 mph N/A   Overcast
1:55 PM 46.4 °F 39.8 °F 32.2 °F 58% 29.87 in 10.0 mi West 16.1 mph 25.3 mph N/A   Overcast
2:15 PM 46.4 °F 40.1 °F 32.5 °F 59% 29.88 in 10.0 mi West 15.0 mph 20.7 mph N/A   Overcast
2:35 PM 45.7 °F 38.6 °F 33.3 °F 62% 29.89 in 10.0 mi West 17.3 mph 24.2 mph N/A   Overcast
2:55 PM 45.9 °F 38.8 °F 32.2 °F 59% 29.90 in 10.0 mi West 17.3 mph 26.5 mph N/A   Overcast
3:15 PM 45.9 °F 40.8 °F 32.0 °F 58% 29.90 in 10.0 mi West 10.4 mph 19.6 mph N/A   Overcast
3:35 PM 45.5 °F 38.6 °F 31.6 °F 58% 29.92 in 10.0 mi West 16.1 mph 26.5 mph N/A   Overcast
3:55 PM 44.8 °F 37.4 °F 30.2 °F 57% 29.93 in 10.0 mi West 17.3 mph 28.8 mph N/A   Overcast
4:15 PM 44.1 °F 37.4 °F 30.7 °F 59% 29.94 in 10.0 mi West 13.8 mph 26.5 mph N/A   Overcast
4:35 PM 43.0 °F 34.2 °F 28.8 °F 57% 29.96 in 10.0 mi West 20.7 mph 29.9 mph N/A   Overcast
4:55 PM 42.1 °F 32.8 °F 25.9 °F 53% 29.98 in 10.0 mi West 21.9 mph 36.8 mph N/A   Overcast
5:15 PM 41.9 °F 35.0 °F 25.3 °F 52% 29.98 in 10.0 mi West 12.7 mph 21.9 mph N/A   Overcast
5:35 PM 41.5 °F 33.8 °F 25.7 °F 53% 29.98 in 10.0 mi West 15.0 mph 23.0 mph N/A   Overcast
5:55 PM 41.5 °F 35.4 °F 26.2 °F 55% 29.98 in 10.0 mi West 10.4 mph 23.0 mph N/A   Overcast
6:15 PM 41.2 °F 34.5 °F 27.1 °F 57% 30.00 in 10.0 mi WNW 11.5 mph 20.7 mph N/A   Overcast
6:35 PM 41.0 °F 31.4 °F 26.1 °F 55% 30.01 in 10.0 mi West 21.9 mph 28.8 mph N/A Rain Light Rain
6:55 PM 40.6 °F 32.0 °F 23.5 °F 51% 30.01 in 10.0 mi WNW 17.3 mph 25.3 mph N/A   Overcast
7:15 PM 40.5 °F 32.8 °F 23.9 °F 52% 30.02 in 10.0 mi WNW 13.8 mph 21.9 mph N/A   Overcast
7:35 PM 40.3 °F 34.9 °F 24.3 °F 53% 30.02 in 10.0 mi WNW 8.1 mph 17.3 mph N/A   Overcast
7:55 PM 40.1 °F 32.4 °F 24.6 °F 54% 30.02 in 10.0 mi WNW 13.8 mph 21.9 mph N/A   Overcast
8:35 PM 40.1 °F 33.2 °F 25.0 °F 55% 30.03 in 10.0 mi WNW 11.5 mph 20.7 mph N/A   Overcast
8:55 PM 40.1 °F 32.4 °F 24.4 °F 54% 30.04 in 10.0 mi WNW 13.8 mph 27.6 mph N/A   Overcast
9:15 PM 40.1 °F 31.6 °F 24.4 °F 54% 30.05 in 10.0 mi WNW 16.1 mph 27.6 mph N/A   Overcast
9:35 PM 40.1 °F 32.7 °F 24.6 °F 54% 30.06 in 10.0 mi WNW 12.7 mph 28.8 mph N/A   Overcast
9:55 PM 39.7 °F 32.7 °F 25.2 °F 56% 30.06 in 10.0 mi WNW 11.5 mph 20.7 mph N/A   Overcast
10:15 PM 39.4 °F 33.2 °F 25.7 °F 58% 30.07 in 10.0 mi WNW 9.2 mph - N/A   Overcast
10:35 PM 39.2 °F 33.0 °F 25.7 °F 58% 30.07 in 10.0 mi WNW 9.2 mph 18.4 mph N/A   Overcast
10:55 PM 39.2 °F 30.8 °F 25.7 °F 58% 30.08 in 10.0 mi WNW 15.0 mph 20.7 mph N/A   Overcast
11:15 PM 39.0 °F 31.4 °F 25.9 °F 59% 30.09 in 10.0 mi WNW 12.7 mph 20.7 mph N/A   Overcast
11:35 PM 38.7 °F 30.9 °F 26.1 °F 61% 30.11 in 10.0 mi West 12.7 mph 20.7 mph N/A   Overcast
11:55 PM 38.5 °F 30.3 °F 26.2 °F 61% 30.11 in 10.0 mi WNW 13.8 mph 20.7 mph N/A   Overcast